GW1636 Weather Reports


Display with metric or nautical units.
time (UTC)temp
F
wind
direction
speed
MPH
gust
MPH
rain 1hr
in
rain 24hr
in
rain mn
in
humidity
%
barometer
mb
20260504202031 76 243 3.0 5.0 0.00 0.00 0.00 41 1018.2
20260504201527 76 238 4.0 8.0 0.00 0.00 0.00 40 1018.2
20260504201026 76 175 7.0 8.0 0.00 0.00 0.00 40 1018.3
20260504200521 76 213 4.0 9.0 0.00 0.00 0.00 41 1018.3
20260504200018 76 266 0.0 3.0 0.00 0.00 0.00 42 1018.4
20260504195514 76 190 4.0 6.0 0.00 0.00 0.00 42 1018.3
20260504195011 75 289 0.0 1.0 0.00 0.00 0.00 44 1018.3
20260504194508 75 246 1.0 7.0 0.00 0.00 0.00 42 1018.4
20260504194003 76 249 0.0 5.0 0.00 0.00 0.00 41 1018.6
20260504193500 76 273 0.0 2.0 0.00 0.00 0.00 43 1018.6
20260504192959 75 300 1.0 2.0 0.00 0.00 0.00 43 1018.9
20260504192456 75 307 0.0 2.0 0.00 0.00 0.00 46 1018.5
20260504191955 75 158 5.0 7.0 0.00 0.00 0.00 41 1018.8
20260504191452 76 293 2.0 2.0 0.00 0.00 0.00 43 1018.9
20260504190947 75 267 0.0 1.0 0.00 0.00 0.00 42 1018.9
20260504190443 75 252 0.0 7.0 0.00 0.00 0.00 42 1018.9
20260504185940 75 262 0.0 6.0 0.00 0.00 0.00 40 1019.2
20260504185438 75 258 0.0 3.0 0.00 0.00 0.00 42 1019.2
20260504184933 75 211 4.0 6.0 0.00 0.00 0.00 42 1019.3
20260504184429 75 207 3.0 7.0 0.00 0.00 0.00 42 1019.2
20260504183925 75 272 0.0 5.0 0.00 0.00 0.00 45 1019.5
20260504183423 75 42 1.0 2.0 0.00 0.00 0.00 45 1019.3
20260504182921 76 321 1.0 5.0 0.00 0.00 0.00 44 1019.4
20260504182417 76 258 4.0 10.0 0.00 0.00 0.00 44 1019.5
20260504181914 75 81 2.0 5.0 0.00 0.00 0.00 43 1019.7
20260504181412 75 230 3.0 7.0 0.00 0.00 0.00 42 1019.7
20260504180910 75 260 0.0 2.0 0.00 0.00 0.00 48 1019.8
20260504180409 74 233 3.0 3.0 0.00 0.00 0.00 45 1019.9
20260504175907 74 221 4.0 6.0 0.00 0.00 0.00 44 1019.9
20260504175403 75 270 1.0 5.0 0.00 0.00 0.00 45 1020.2
20260504174901 73 283 1.0 2.0 0.00 0.00 0.00 48 1020.1
20260504174358 75 263 0.0 2.0 0.00 0.00 0.00 43 1020.0
20260504173855 75 189 5.0 6.0 0.00 0.00 0.00 44 1020.0
20260504173352 74 272 2.0 3.0 0.00 0.00 0.00 47 1019.9
20260504172849 76 265 2.0 2.0 0.00 0.00 0.00 45 1020.2
20260504172345 75 162 4.0 5.0 0.00 0.00 0.00 46 1020.2
20260504171841 75 243 1.0 2.0 0.00 0.00 0.00 46 1020.2
20260504171339 74 228 0.0 3.0 0.00 0.00 0.00 45 1020.2
20260504170836 74 188 5.0 7.0 0.00 0.00 0.00 43 1020.4
20260504170332 74 263 1.0 2.0 0.00 0.00 0.00 47 1020.8
20260504160251 72 266 0.0 1.0 0.00 0.00 0.00 47 1021.3
20260504150716 68 181 2.0 5.0 0.00 0.00 0.00 51 1021.1
20260504150213 68 180 1.0 8.0 0.00 0.00 0.00 54 1021.5
20260504141142 64 226 4.0 9.0 0.00 0.00 0.00 57 1021.6
20260504140639 63 178 2.0 5.0 0.00 0.00 0.00 59 1021.8
20260504140134 63 235 1.0 9.0 0.00 0.00 0.00 59 1021.8
20260504130603 61 158 3.0 7.0 0.00 0.00 0.00 56 1021.7
20260504110451 57 261 0.0 1.0 0.00 0.00 0.00 56 1020.7
20260504100407 58 250 0.0 1.0 0.00 0.00 0.00 57 1020.8
20260504081800 56 278 0.0 0.0 0.00 0.00 0.00 61 1020.7
20260504081256 56 278 0.0 0.0 0.00 0.00 0.00 63 1020.6
20260504080753 56 278 0.0 0.0 0.00 0.00 0.00 62 1020.6
20260504080249 56 278 0.0 1.0 0.00 0.00 0.00 61 1020.8
20260504070217 52 300 0.0 0.0 0.00 0.00 0.00 75 1021.2
20260504060138 52 298 0.0 0.0 0.00 0.00 0.00 80 1021.9
20260504050606 52 298 0.0 0.0 0.00 0.00 0.00 75 1022.1
20260504045600 53 298 0.0 0.0 0.00 0.00 0.00 73 1022.0
20260504045055 53 298 0.0 0.0 0.00 0.00 0.00 72 1021.9
20260504044553 53 298 0.0 0.0 0.00 0.00 0.00 72 1022.0
20260504044049 53 298 0.0 0.0 0.00 0.00 0.00 72 1021.9
20260504043547 53 298 0.0 0.0 0.00 0.00 0.00 71 1022.1
20260504043044 54 298 0.0 0.0 0.00 0.00 0.00 73 1022.1
20260504042541 54 300 0.0 0.0 0.00 0.00 0.00 73 1022.3
20260504042038 55 300 0.0 0.0 0.00 0.00 0.00 71 1022.3
20260504041533 55 298 0.0 0.0 0.00 0.00 0.00 68 1022.3
20260504041030 55 298 0.0 0.0 0.00 0.00 0.00 66 1022.4
20260504040527 55 298 0.0 0.0 0.00 0.00 0.00 66 1022.1
20260504040024 55 298 0.0 0.0 0.00 0.00 0.00 70 1022.2
20260504035521 55 300 0.0 0.0 0.00 0.00 0.00 69 1022.2
20260504035017 55 298 0.0 0.0 0.00 0.00 0.00 68 1022.3
20260504034515 55 298 0.0 0.0 0.00 0.00 0.00 66 1022.5
20260504034012 55 298 0.0 0.0 0.00 0.00 0.00 67 1022.5
20260504033510 55 298 0.0 0.0 0.00 0.00 0.00 66 1022.5
20260504033007 56 298 0.0 0.0 0.00 0.00 0.00 67 1022.5
20260504032503 56 298 0.0 0.0 0.00 0.00 0.00 64 1022.6
20260504032000 57 298 0.0 0.0 0.00 0.00 0.00 64 1022.6
20260504031456 57 298 0.0 0.0 0.00 0.00 0.00 61 1022.5
20260504030954 57 298 0.0 0.0 0.00 0.00 0.00 63 1022.6
20260504030451 57 298 0.0 0.0 0.00 0.00 0.00 63 1022.5
20260504025946 57 298 0.0 0.0 0.00 0.00 0.00 64 1022.5
20260504025444 57 298 0.0 0.0 0.00 0.00 0.00 64 1022.5
20260504024941 56 300 0.0 0.0 0.00 0.00 0.00 62 1022.4
20260504024438 57 298 0.0 0.0 0.00 0.00 0.00 63 1022.4
20260504023935 57 298 0.0 0.0 0.00 0.00 0.00 64 1022.3
20260504023431 57 298 0.0 0.0 0.00 0.00 0.00 60 1022.4
20260504022927 57 298 0.0 1.0 0.00 0.00 0.00 62 1022.1
20260504022423 57 298 0.0 1.0 0.00 0.00 0.00 62 1022.2
20260504021920 57 298 0.0 0.0 0.00 0.00 0.00 63 1022.2
20260504021417 56 298 0.0 0.0 0.00 0.00 0.00 64 1022.2
20260504020915 57 298 0.0 0.0 0.00 0.00 0.00 66 1021.9
20260504020411 57 298 0.0 0.0 0.00 0.00 0.00 64 1021.9
20260504015908 57 298 0.0 0.0 0.00 0.00 0.00 64 1022.1
20260504015404 57 298 0.0 0.0 0.00 0.00 0.00 65 1022.1
20260504014900 57 300 0.0 0.0 0.00 0.00 0.00 65 1021.9
20260504014356 57 298 0.0 0.0 0.00 0.00 0.00 65 1022.0
20260504013853 57 300 0.0 0.0 0.00 0.00 0.00 65 1022.1
20260504013351 57 300 0.0 0.0 0.00 0.00 0.00 64 1022.1
20260504012847 57 300 0.0 0.0 0.00 0.00 0.00 64 1021.8
20260504012345 57 300 0.0 0.0 0.00 0.00 0.00 66 1021.7
20260504011843 57 300 0.0 0.0 0.00 0.00 0.00 65 1021.9
20260504011339 58 300 0.0 0.0 0.00 0.00 0.00 65 1021.8
20260504010835 58 300 0.0 0.0 0.00 0.00 0.00 63 1021.9
20260504010331 58 300 0.0 0.0 0.00 0.00 0.00 62 1021.7
20260504005828 58 302 0.0 0.0 0.00 0.00 0.00 61 1021.7
20260504005324 59 302 0.0 0.0 0.00 0.00 0.00 62 1021.7
20260504004822 59 302 0.0 0.0 0.00 0.00 0.00 62 1021.6
20260504004319 59 302 0.0 0.0 0.00 0.00 0.00 61 1021.3
20260504003815 60 302 0.0 0.0 0.00 0.00 0.00 61 1021.5
20260504003313 60 298 0.0 0.0 0.00 0.00 0.00 59 1021.5
20260504002809 61 298 0.0 0.0 0.00 0.00 0.00 59 1021.5
20260504002306 61 298 0.0 0.0 0.00 0.00 0.00 57 1021.2
20260504001804 62 298 0.0 0.0 0.00 0.00 0.00 56 1021.5
20260504001301 62 298 0.0 0.0 0.00 0.00 0.00 55 1021.5
20260504000758 63 298 0.0 0.0 0.00 0.00 0.00 53 1021.3
20260504000254 64 298 0.0 0.0 0.00 0.00 0.00 54 1021.5
20260503235752 64 298 0.0 0.0 0.00 0.00 0.00 47 1021.3
20260503235250 65 298 0.0 0.0 0.00 0.00 0.00 47 1021.5
20260503234747 66 298 0.0 0.0 0.00 0.00 0.00 46 1021.2
20260503234245 67 305 0.0 1.0 0.00 0.00 0.00 42 1021.2
20260503233742 68 300 0.0 0.0 0.00 0.00 0.00 43 1021.1
20260503233238 69 300 0.0 0.0 0.00 0.00 0.00 41 1021.1
20260503232735 69 300 0.0 1.0 0.00 0.00 0.00 39 1021.1
20260503232232 70 294 0.0 1.0 0.00 0.00 0.00 37 1021.2
20260503231730 69 294 1.0 1.0 0.00 0.00 0.00 39 1021.3
20260503231227 67 284 0.0 1.0 0.00 0.00 0.00 38 1021.3
20260503230723 67 284 0.0 2.0 0.00 0.00 0.00 44 1021.5
20260503230220 67 289 1.0 2.0 0.00 0.00 0.00 41 1021.3
20260503225718 67 301 0.0 1.0 0.00 0.00 0.00 40 1021.3
20260503225218 68 290 1.0 2.0 0.00 0.00 0.00 43 1021.3
20260503224715 68 286 1.0 5.0 0.00 0.00 0.00 40 1021.2
20260503224213 68 286 1.0 2.0 0.00 0.00 0.00 39 1021.5
20260503223710 68 296 1.0 2.0 0.00 0.00 0.00 39 1021.5
20260503223207 68 325 2.0 2.0 0.00 0.00 0.00 40 1021.3
20260503222704 68 279 1.0 2.0 0.00 0.00 0.00 38 1021.7
20260503222202 68 313 0.0 2.0 0.00 0.00 0.00 40 1021.7
20260503221700 68 296 1.0 2.0 0.00 0.00 0.00 39 1021.6
20260503221157 68 322 0.0 5.0 0.00 0.00 0.00 38 1021.7
20260503220654 68 320 2.0 5.0 0.00 0.00 0.00 40 1021.7
20260503220150 68 295 0.0 1.0 0.00 0.00 0.00 39 1021.7
20260503215647 68 307 0.0 3.0 0.00 0.00 0.00 39 1021.8
20260503215143 68 353 3.0 5.0 0.00 0.00 0.00 38 1021.8
20260503214642 68 283 0.0 1.0 0.00 0.00 0.00 39 1021.8
20260503214138 68 292 2.0 3.0 0.00 0.00 0.00 36 1021.9
20260503213632 68 356 0.0 1.0 0.00 0.00 0.00 40 1021.7
20260503213128 68 271 1.0 1.0 0.00 0.00 0.00 36 1021.8
20260503212626 68 315 1.0 3.0 0.00 0.00 0.00 37 1022.0
20260503212123 68 326 0.0 2.0 0.00 0.00 0.00 40 1022.0
20260503211620 68 290 0.0 3.0 0.00 0.00 0.00 38 1022.3
20260503211115 68 280 1.0 3.0 0.00 0.00 0.00 37 1021.9
20260503210607 68 286 1.0 7.0 0.00 0.00 0.00 37 1022.2
20260503205559 68 325 2.0 2.0 0.00 0.00 0.00 40 1022.1
20260503205055 68 302 3.0 7.0 0.00 0.00 0.00 39 1022.4
20260503204552 68 278 0.0 2.0 0.00 0.00 0.00 38 1022.4
20260503204049 67 339 3.0 6.0 0.00 0.00 0.00 39 1022.5
20260503203547 68 313 2.0 5.0 0.00 0.00 0.00 42 1022.5
20260503203044 67 317 3.0 5.0 0.00 0.00 0.00 41 1022.9
20260503202542 68 275 1.0 2.0 0.00 0.00 0.00 39 1022.8